This is the latest recevied weather packets stored in our database for station/object K6GMW. If no packets are shown the sender has not sent any weather packets the latest 10 day(s).
| Time | Temp. | Humidity | Pressure | Rain* | Wind** | Luminosity | Snow |
|---|---|---|---|---|---|---|---|
| 1788470732 | 34.44° C | 47% | 1013.4 hPa | 0 mm | - | 121 W/m² | - |
| 1788470427 | 35.56° C | 47% | 1013.3 hPa | 0 mm | - | 114 W/m² | - |
| 1788470121 | 35° C | 49% | 1013.3 hPa | 0 mm | - | 607 W/m² | - |
| 1788469819 | 34.44° C | 48% | 1013.5 hPa | 0 mm | - | 170 W/m² | - |
| 1788469519 | 35° C | 48% | 1013.6 hPa | 0 mm | - | 129 W/m² | - |
| 1788469215 | 35° C | 48% | 1013.2 hPa | 0 mm | - | 283 W/m² | - |
| 1788468914 | 35.56° C | 47% | 1013.7 hPa | 0 mm | - | 195 W/m² | - |
| 1788468609 | 35.56° C | 48% | 1013.6 hPa | 0 mm | - | 773 W/m² | - |
| 1788468304 | 35.56° C | 47% | 1013.5 hPa | 0 mm | - | 771 W/m² | - |
| 1788468000 | 35° C | 47% | 1013.5 hPa | 0 mm | - | 788 W/m² | - |
| 1788467695 | 35° C | 47% | 1013.8 hPa | 0 mm | - | 782 W/m² | - |
| 1788467394 | 35° C | 49% | 1014 hPa | 0 mm | - | 780 W/m² | - |
| 1788467091 | 35° C | 50% | 1013.9 hPa | 0 mm | - | 802 W/m² | - |
| 1788466791 | 33.89° C | 53% | 1013.9 hPa | 0 mm | - | 802 W/m² | - |
| 1788466486 | 33.33° C | 53% | 1014.1 hPa | 0 mm | - | 854 W/m² | - |
| 1788466185 | 33.33° C | 53% | 1014.3 hPa | 0 mm | - | 159 W/m² | - |
| 1788465880 | 33.33° C | 53% | 1014.3 hPa | 0 mm | - | 166 W/m² | - |
| 1788465575 | 33.33° C | 51% | 1014.4 hPa | 0 mm | - | 184 W/m² | - |
| 1788465272 | 33.89° C | 51% | 1014.5 hPa | 0 mm | - | 137 W/m² | - |
| 1788464972 | 33.89° C | 52% | 1014.6 hPa | 0 mm | - | 872 W/m² | - |
| 1788464667 | 33.33° C | 53% | 1014.6 hPa | 0 mm | - | 157 W/m² | - |
| 1788464362 | 33.33° C | 54% | 1014.7 hPa | 0 mm | - | 252 W/m² | - |
| 1788464059 | 32.78° C | 54% | 1014.8 hPa | 0 mm | - | 307 W/m² | - |
| 1788463754 | 32.78° C | 54% | 1014.8 hPa | 0 mm | - | 277 W/m² | - |
| 1788463450 | 32.78° C | 55% | 1014.8 hPa | 0 mm | - | 266 W/m² | - |
* Rain latest hour (hover to see other rain measurements)
** Current wind speed in m/s (hover to see current wind gust speed)